Flag for U.S.A. Weather past 2 weeks in Seattle, Washington, U.S.A.

59 °F


Feels Like: 59 °F
Forecast: 58 / 66 °F
Wind: No wind

Location: Seattle Boeing Field

Current Time: Oct 9, 2015 at 2:38:00 AM

Latest Report: Oct 9, 2015 at 1:53 AM

Visibility: 4 mi

Pressure: 29.95 "Hg

Humidity: 87%

Dew point: 55 °F

Location of SeattleLocation

Historic Weather in Seattle — Graph


Seattle temperature yesterday

Maximum temperature yesterday: 70 °F (at 3:53 PM)
Minimum temperature yesterday: 59 °F (at 6:53 AM)
Average temperature yesterday: 64 °F

Past Weeks' High & Low Weather Summary

High75 °F (Sep 24, 2:53 PM)90% (Oct 1, 8:53 AM)30.21 "Hg (Oct 1, 8:53 AM)
Low47 °F (Sep 27, 6:53 AM)38% (Oct 4, 12:53 PM)29.85 "Hg (Oct 5, 4:53 PM)
Average61 °F67%30.03 "Hg
* Reported Sep 24 12:53 AM — Oct 9 12:53 AM, Seattle, Weather by CustomWeather, © 2015

Note: Actual official high and low records may vary slightly from our data, if they occured in-between our weather recording intervals... More about our weather records


Seattle weather history for previous 24 hours

Time TempWeatherWind HumidityBarometerVisibility
12:53 AM
Fri, Oct 9
60 °FFog.No wind86%29.96 "Hg4 mi
11:53 PM
Thu, Oct 8
61 °FFog.No wind87%29.97 "Hg4 mi
10:53 PM61 °FClear.No wind83%29.99 "Hg8 mi
9:53 PM64 °FClear.No wind81%30.01 "Hg10 mi
8:53 PM65 °FPassing clouds.No wind78%30.01 "Hg10 mi
7:53 PM66 °FPassing clouds.3 mph75%30.01 "Hg10 mi
6:53 PM68 °FPartly sunny.3 mph70%30.02 "Hg10 mi
5:53 PM69 °FPartly sunny.5 mph66%30.04 "Hg10 mi
4:53 PM69 °FPartly sunny.No wind66%30.05 "Hg10 mi
3:53 PM70 °FMore clouds than sun.No wind64%30.07 "Hg10 mi
2:53 PM69 °FMore clouds than sun.No wind68%30.07 "Hg9 mi
1:53 PM67 °FMore clouds than sun.No wind73%30.09 "Hg8 mi
12:53 PM65 °FFog.No wind78%30.10 "Hg7 mi
11:53 AM64 °FFog.3 mph78%30.10 "Hg6 mi
10:53 AM63 °FFog.No wind84%30.13 "Hg6 mi
9:53 AM62 °FOvercast.No wind83%30.13 "Hg7 mi
8:53 AM61 °FMore clouds than sun.No wind83%30.12 "Hg10 mi
7:53 AM60 °FPassing clouds.No wind86%30.13 "Hg10 mi
6:53 AM59 °FPassing clouds.3 mph87%30.13 "Hg10 mi
5:53 AM60 °FClear.No wind86%30.14 "Hg10 mi
4:53 AM60 °FOvercast.No wind83%30.14 "Hg10 mi
3:53 AM60 °FPassing clouds.3 mph86%30.15 "Hg10 mi
2:53 AM60 °FOvercast.No wind86%30.16 "Hg10 mi
Weather by CustomWeather, © 2015

See weather overviewHow to use our weather pages